Skip Page Navigation
NASA JPL Caltech
NASA Logo - Jet Propulsion Laboratory + View the NASA Portal
+ Center for Near-Earth Object Studies
JPL Home Earth Solar System Stars & Galaxies Technology
JPL Solar System Dynamics
BODIES ORBITS EPHEMERIDES TOOLS PHYSICAL DATA DISCOVERY FAQ SITE MAP
JPL Small-Body Database Browser
Search: [ help ]  
14582 Conlin (1998 RK49)
Classification: Main-belt Asteroid          SPK-ID: 2014582
Ephemeris | Orbit Diagram | Orbital Elements | Mission Design | Physical Parameters | Discovery Circumstances ]

[ show orbit diagram ]
Orbital Elements at Epoch 2459000.5 (2020-May-31.0) TDB
Reference: JPL 36 (heliocentric ecliptic J2000)
 Element Value Uncertainty (1-sigma)   Units 
e .1716344899968941 2.5614e-08  
a 2.254874307126266 5.7395e-09 au
q 1.867860105415549 5.7427e-08 au
i 5.36429424871819 3.7504e-06 deg
node 169.3763099756335 3.0762e-05 deg
peri 254.9916073409621 3.2991e-05 deg
M 94.60844537289769 1.1619e-05 deg
tp 2458675.480558718011
(2019-Jul-10.98055872)
3.9584e-05 TDB
period 1236.75004277192
3.39
4.722e-06
1.293e-08
d
yr
n .2910854963005575 1.1114e-09 deg/d
Q 2.641888508836982 6.7246e-09 au
  Orbit Determination Parameters
   # obs. used (total)      2074  
   data-arc span      11543 days (31.60 yr)  
   first obs. used      1988-11-04  
   last obs. used      2020-06-12  
   planetary ephem.      DE431  
   SB-pert. ephem.      SB431-N16  
   condition code      0  
   norm. resid. RMS      .47004  
   source      ORB  
   producer      Otto Matic  
   solution date      2020-Nov-13 02:39:02  

Additional Information
 Earth MOID = .889515 au 
 Jupiter MOID = 2.67666 au 
 T_jup = 3.599 
[ show covariance matrix ]

Ephemeris | Orbit Diagram | Orbital Elements | Mission Design | Physical Parameters | Discovery Circumstances ]

Physical Parameter Table
Parameter Symbol Value Units Sigma Reference Notes
absolute magnitude H 14.3   n/a MPO502280  

14582 Conlin           Discovered 1998 Sept. 14 by the Lincoln Laboratory Near-Earth Asteroid Research Team at Socorro.
Kimberly Conlin mentored a finalist in the 2002 Discovery Channel Youth Science Challenge (DCYSC), a middle school science competition. She teaches at the Rocky Mountain Middle School, Heber, Utah.
NOTE: some special characters may not display properly (any characters within {} are an attempt to place the proper accent above a character)
Reference: 20021021/MPCPages.arcLast Updated: 2003-10-02

Alternate Designations
 1998 RK49 = 1951 YT2 = 1971 TH3 = 1981 RF4 = 1988 VT12 = 1991 PY9 
Ephemeris | Orbit Diagram | Orbital Elements | Mission Design | Physical Parameters | Discovery Circumstances ]
ABOUT SSD CREDITS/AWARDS PRIVACY/COPYRIGHT GLOSSARY LINKS
FirstGov 2021-Jan-27 20:53 UT
(server date/time)  
NASA Home Page
Site Manager:   Ryan S. Park
Webmaster  Alan B. Chamberlin